Overview Statistics Trail Chart Weather Telemetry Raw packets
 

This is the latest recevied weather packets stored in our database for station/object KO6HRZ. If no packets are shown the sender has not sent any weather packets the latest 10 day(s).

<< 48 49 50 51 52 53 54 >>
Time Temp. Humidity Pressure Rain* Wind** Luminosity Snow
1787929880 21.67° C 57% 1012 hPa 0 mm - 40 W/m² -
1787929274 21.11° C 58% 1011.5 hPa 0 mm - 33 W/m² -
1787928673 21.11° C 59% 1011.2 hPa 0 mm - 34 W/m² -
1787928070 20.56° C 60% 1011.2 hPa 0 mm - 44 W/m² -
1787927470 20.56° C 60% 1011 hPa 0 mm - 29 W/m² -
1787926866 20.56° C 60% 1010.9 hPa 0 mm - 17 W/m² -
1787926265 20.56° C 59% 1010.8 hPa 0 mm - 15 W/m² -
1787925660 20.56° C 59% 1010.7 hPa 0 mm - 9 W/m² -
1787925060 20.56° C 60% 1010.5 hPa 0 mm - 5 W/m² -
1787924460 20.56° C 60% 1010.4 hPa 0 mm - 2 W/m² -
1787923855 20.56° C 60% 1010.5 hPa 0 mm - 1 W/m² -
1787923252 20.56° C 60% 1010.5 hPa 0 mm - 0 W/m² -
1787922652 20.56° C 60% 1010.4 hPa 0 mm - 0 W/m² -
1787922049 20.56° C 59% 1010.4 hPa 0 mm - 0 W/m² -
1787921449 20.56° C 58% 1010.4 hPa 0 mm - 0 W/m² -
1787920845 20.56° C 57% 1010.3 hPa 0 mm - 0 W/m² -
1787920239 20.56° C 55% 1010.3 hPa 0 mm - 0 W/m² -
1787919637 21.11° C 54% 1010.3 hPa 0 mm - 0 W/m² -
1787919034 21.11° C 54% 1010.6 hPa 0 mm - 0 W/m² -
1787918434 21.11° C 53% 1010.3 hPa 0 mm - 0 W/m² -
1787917833 21.11° C 53% 1010.6 hPa 0 mm - 0 W/m² -
1787917231 21.11° C 52% 1010.6 hPa 0 mm - 0 W/m² -
1787916631 21.11° C 53% 1010.3 hPa 0 mm - 0 W/m² -
1787916027 21.11° C 53% 1010.4 hPa 0 mm - 0 W/m² -
1787915423 20.56° C 53% 1010.4 hPa 0 mm - 0 W/m² -

* Rain latest hour (hover to see other rain measurements)
** Current wind speed in m/s (hover to see current wind gust speed)